TimeEST,TemperatureF,Dew PointF,Humidity,Sea Level PressureIn,VisibilityMPH,Wind Direction,Wind SpeedMPH,Gust SpeedMPH,PrecipitationIn,Events,Conditions,WindDirDegrees,DateUTC
12:15 AM,57.2,48.2,72,29.97,8.0,WNW,12.7,20.7,0.02,,Overcast,290,2013-01-31 05:15:00
12:35 AM,55.4,46.4,72,29.98,5.0,West,11.5,18.4,0.03,,Overcast,270,2013-01-31 05:35:00
12:55 AM,55.4,46.4,72,29.99,5.0,WNW,5.8,-,0.04,,Overcast,300,2013-01-31 05:55:00
1:15 AM,53.6,46.4,77,29.98,5.0,NW,3.5,-,0.04,,Overcast,320,2013-01-31 06:15:00
1:35 AM,53.6,44.6,72,29.98,10.0,SW,4.6,-,0.04,,Mostly Cloudy,220,2013-01-31 06:35:00
1:55 AM,53.6,44.6,72,29.98,10.0,SW,3.5,-,0.04,,Overcast,230,2013-01-31 06:55:00
2:15 AM,53.6,46.4,77,29.99,10.0,WSW,4.6,-,N/A,,Overcast,240,2013-01-31 07:15:00
2:35 AM,55.4,46.4,72,29.99,10.0,SW,3.5,-,N/A,,Overcast,230,2013-01-31 07:35:00
2:55 AM,55.4,46.4,72,29.99,10.0,West,3.5,-,N/A,,Overcast,280,2013-01-31 07:55:00
3:15 AM,55.4,46.4,72,30.01,10.0,West,4.6,-,N/A,,Overcast,280,2013-01-31 08:15:00
3:35 AM,55.4,46.4,72,30.00,10.0,NW,4.6,-,N/A,,Overcast,310,2013-01-31 08:35:00
3:55 AM,55.4,44.6,67,30.00,10.0,West,3.5,-,N/A,,Mostly Cloudy,280,2013-01-31 08:55:00
4:15 AM,55.4,44.6,67,30.01,10.0,WNW,5.8,-,N/A,,Mostly Cloudy,290,2013-01-31 09:15:00
4:35 AM,55.4,44.6,67,30.01,10.0,WNW,4.6,-,N/A,,Mostly Cloudy,300,2013-01-31 09:35:00
4:55 AM,53.6,42.8,67,30.02,10.0,NW,4.6,-,N/A,,Partly Cloudy,320,2013-01-31 09:55:00
5:15 AM,53.6,42.8,67,30.02,10.0,NW,3.5,-,N/A,,Clear,310,2013-01-31 10:15:00
5:35 AM,51.8,42.8,71,30.03,10.0,NW,5.8,-,N/A,,Clear,320,2013-01-31 10:35:00
5:55 AM,51.8,41.0,67,30.05,10.0,WNW,5.8,-,N/A,,Clear,300,2013-01-31 10:55:00
6:15 AM,51.8,39.2,62,30.06,10.0,WNW,6.9,-,N/A,,Clear,300,2013-01-31 11:15:00
6:35 AM,51.8,37.4,58,30.08,10.0,WNW,9.2,-,N/A,,Clear,300,2013-01-31 11:35:00
6:50 AM,51.8,42.8,71,30.08,10.0,NW,9.2,-,N/A,,Partly Cloudy,310,2013-01-31 11:50:00
7:50 AM,48.2,42.8,82,30.13,10.0,NW,6.9,-,N/A,,Clear,310,2013-01-31 12:50:00
8:50 AM,50.0,42.8,76,30.15,10.0,NNW,10.4,-,N/A,,Partly Cloudy,330,2013-01-31 13:50:00
9:45 AM,51.8,41.0,67,30.18,10.0,NW,13.8,-,N/A,,Partly Cloudy,310,2013-01-31 14:45:00
10:50 AM,53.6,30.2,41,30.19,10.0,NW,13.8,18.4,N/A,,Clear,320,2013-01-31 15:50:00
11:50 AM,55.4,30.2,38,30.19,10.0,NW,13.8,18.4,N/A,,Clear,320,2013-01-31 16:50:00
12:50 PM,57.2,26.6,31,30.17,10.0,NNW,10.4,-,N/A,,Clear,340,2013-01-31 17:50:00
1:50 PM,59.0,21.2,23,30.16,10.0,NW,10.4,18.4,N/A,,Clear,310,2013-01-31 18:50:00
2:50 PM,60.8,21.2,22,30.16,10.0,NNW,11.5,-,N/A,,Clear,330,2013-01-31 19:50:00
3:50 PM,60.8,21.2,22,30.16,10.0,WNW,6.9,-,N/A,,Clear,290,2013-01-31 20:50:00
4:50 PM,60.8,19.4,20,30.17,10.0,NW,10.4,-,N/A,,Clear,320,2013-01-31 21:50:00
5:50 PM,57.2,21.2,25,30.16,10.0,NNW,5.8,-,N/A,,Clear,330,2013-01-31 22:50:00
6:50 PM,50.0,23.0,35,30.19,10.0,Calm,Calm,-,N/A,,Clear,0,2013-01-31 23:50:00
7:55 PM,48.2,23.0,37,30.22,10.0,NNW,3.5,-,N/A,,Clear,340,2013-02-01 00:55:00
8:15 PM,44.6,23.0,43,30.23,10.0,Calm,Calm,-,N/A,,Clear,0,2013-02-01 01:15:00
8:35 PM,44.6,24.8,46,30.24,10.0,Calm,Calm,-,N/A,,Clear,0,2013-02-01 01:35:00
8:55 PM,42.8,26.6,53,30.25,10.0,WNW,5.8,-,N/A,,Clear,290,2013-02-01 01:55:00
9:15 PM,44.6,24.8,46,30.25,10.0,NW,3.5,-,N/A,,Clear,320,2013-02-01 02:15:00
9:35 PM,44.6,24.8,46,30.25,10.0,NNW,3.5,-,N/A,,Clear,330,2013-02-01 02:35:00
10:15 PM,42.8,24.8,49,30.26,10.0,NNW,4.6,-,N/A,,Clear,330,2013-02-01 03:15:00
10:35 PM,42.8,26.6,53,30.27,10.0,NNW,4.6,-,N/A,,Clear,330,2013-02-01 03:35:00
10:55 PM,42.8,26.6,53,30.26,10.0,Calm,Calm,-,N/A,,Clear,0,2013-02-01 03:55:00
11:15 PM,41.0,26.6,57,30.27,10.0,NW,3.5,-,N/A,,Clear,320,2013-02-01 04:15:00
11:35 PM,39.2,26.6,61,30.27,10.0,NNW,5.8,-,N/A,,Clear,330,2013-02-01 04:35:00
11:55 PM,41.0,26.6,57,30.27,10.0,NNW,3.5,-,N/A,,Clear,340,2013-02-01 04:55:00